Torna al catalogo

STARLINK-32749

AttivoComunicazioniVLEO
NORAD 62508·PAYLOAD·🇺🇸 United States

Lanciato Jan 6, 2025 da Cape Canaveral Space Force Station

Loading…

Prossimi Passaggi (prossime 24 ore)

TLE

AggiornatoSource: CelesTrak SupGP

Epoca: Sep 14, 2026, 22:18 UTC

1 62508C 25003X   26257.92965278  .00010017  00000+0  36279-3 0  2576
2 62508  43.0027 300.0715 0001894 271.3844 149.5730 15.27575197    15

Traccia STARLINK-32749 in tempo reale con AllMySat

Download on the App Store